This is the latest recevied weather packets stored in our database for station/object N5PA. If no packets are shown the sender has not sent any weather packets the latest 10 day(s).
| Time | Temp. | Humidity | Pressure | Rain* | Wind** | Luminosity | Snow |
|---|---|---|---|---|---|---|---|
| 1777549506 | 18.89° C | 33% | 1012.8 hPa | 11.18 mm | - | 1009 W/m² | - |
| 1777549208 | 18.89° C | 33% | 1012.8 hPa | 10.67 mm | - | 1000 W/m² | - |
| 1777548908 | 18.89° C | 33% | 1013 hPa | 9.4 mm | - | 1005 W/m² | - |
| 1777548607 | 18.89° C | 33% | 1013.6 hPa | 3.05 mm | - | 1005 W/m² | - |
| 1777548307 | 18.89° C | 33% | 1013 hPa | 0.25 mm | - | 1002 W/m² | - |
| 1777548007 | 18.33° C | 33% | 1012.6 hPa | 0 mm | - | 1005 W/m² | - |
| 1777547707 | 18.33° C | 34% | 1012.1 hPa | 0 mm | - | 1007 W/m² | - |
| 1777547407 | 18.33° C | 34% | 1012.2 hPa | 0 mm | - | 1009 W/m² | - |
| 1777547107 | 18.33° C | 34% | 1012.3 hPa | 0 mm | - | 1009 W/m² | - |
| 1777546808 | 18.33° C | 34% | 1012.1 hPa | 0 mm | - | 1009 W/m² | - |
| 1777546507 | 18.33° C | 34% | 1012 hPa | 0 mm | - | 1011 W/m² | - |
| 1777546207 | 18.33° C | 34% | 1011.9 hPa | 0 mm | - | 1009 W/m² | - |
| 1777545907 | 18.33° C | 34% | 1011.8 hPa | 0 mm | - | 1009 W/m² | - |
| 1777545607 | 18.33° C | 34% | 1011.6 hPa | 0 mm | - | 1009 W/m² | - |
| 1777545306 | 18.33° C | 34% | 1011.5 hPa | 0 mm | - | 1004 W/m² | - |
| 1777545007 | 18.33° C | 34% | 1011.5 hPa | 0 mm | - | 1009 W/m² | - |
| 1777544707 | 18.33° C | 34% | 1011.4 hPa | 0 mm | - | 1009 W/m² | - |
| 1777544407 | 18.33° C | 34% | 1011.4 hPa | 0 mm | - | 1009 W/m² | - |
| 1777544107 | 18.33° C | 34% | 1011.2 hPa | 0 mm | - | 1009 W/m² | - |
| 1777543807 | 18.33° C | 34% | 1011.2 hPa | 0.25 mm | - | 1009 W/m² | - |
| 1777543507 | 18.33° C | 34% | 1011.4 hPa | 0.51 mm | - | 998 W/m² | - |
| 1777543206 | 18.33° C | 34% | 1011.8 hPa | 0.51 mm | - | 1007 W/m² | - |
| 1777542907 | 18.33° C | 34% | 1011.8 hPa | 0.51 mm | - | 1009 W/m² | - |
| 1777542606 | 18.33° C | 34% | 1011.7 hPa | 0.51 mm | - | 1007 W/m² | - |
| 1777542306 | 18.33° C | 34% | 1011.7 hPa | 0.51 mm | - | 1007 W/m² | - |
* Rain latest hour (hover to see other rain measurements)
** Current wind speed in m/s (hover to see current wind gust speed)